ES'HAIL 2 (43700 NORAD) Tracking and Keplerian Element Data

This shows tracking and keplerian element data for the satellite.

Feedback or suggestion? Click here.




ElementValue
Catalog43700
NameES'HAIL 2
Epoch Orbit1459
Epoch Day324.84252663
Epoch Year2022
RAAN298.5466
Inclination0.02
Eccentricity0.0001044
Argument of Perigee320.4412
Mean Anonmoly129.9394
Mean Motion1.00269416
Decay Rate1.66E-06
L11 43700U 18090A 22324.84252663 .00000166 00000+0 00000+0 0 9992
L22 43700 0.0200 298.5466 0001044 320.4412 129.9394 1.00269416 14598



Live tracking and technical data element details for ES'HAIL 2 (NORAD 43700). ES'HAIL 2 can be tracked NOW for your location showing map with azimuth and elevation plus other details from your city location.







IsCatalogInMostPopularTable: catalog: 43700, numindb: 9234
Update: records affected: 1



GetName: 43700 ES'HAIL 2

Hit Count: updated at: Fri, 02 Dec 2022 12:14:53 GMT